Year,Month,Day,Hour,Minute,Value (Times are PST for temperature in C)
2008,08,12,00,00,13.30
2008,08,12,00,01,13.30
2008,08,12,00,02,13.30
2008,08,12,00,03,13.30
2008,08,12,00,04,13.30
2008,08,12,00,05,13.30
2008,08,12,00,06,13.20
2008,08,12,00,07,13.20
2008,08,12,00,08,13.20
2008,08,12,00,09,13.20
2008,08,12,00,10,13.20
2008,08,12,00,11,13.20
2008,08,12,00,12,13.20
2008,08,12,00,13,13.20
2008,08,12,00,14,13.20
2008,08,12,00,15,13.20
2008,08,12,00,16,13.20
2008,08,12,00,17,13.20
2008,08,12,00,18,13.20
2008,08,12,00,19,13.20
2008,08,12,00,20,13.30
2008,08,12,00,21,13.30
2008,08,12,00,22,13.30
2008,08,12,00,23,13.30
2008,08,12,00,24,13.30
2008,08,12,00,25,13.30
2008,08,12,00,26,13.30
2008,08,12,00,27,13.30
2008,08,12,00,28,13.30
2008,08,12,00,29,13.30
2008,08,12,00,30,13.30
2008,08,12,00,31,13.30
2008,08,12,00,32,13.30
2008,08,12,00,33,13.30
2008,08,12,00,34,13.30
2008,08,12,00,35,13.30
2008,08,12,00,36,13.30
2008,08,12,00,37,13.30
2008,08,12,00,38,13.30
2008,08,12,00,39,13.30
2008,08,12,00,40,13.30
2008,08,12,00,41,13.30
2008,08,12,00,42,13.30
2008,08,12,00,43,13.30
2008,08,12,00,44,13.30
2008,08,12,00,45,13.30
2008,08,12,00,46,13.20
2008,08,12,00,47,13.20
2008,08,12,00,48,13.20
2008,08,12,00,49,13.20
2008,08,12,00,50,13.20
2008,08,12,00,51,13.20
2008,08,12,00,52,13.20
2008,08,12,00,53,13.20
2008,08,12,00,54,13.30
2008,08,12,00,55,13.30
2008,08,12,00,56,13.30
2008,08,12,00,57,13.30
2008,08,12,00,58,13.30
2008,08,12,00,59,13.30
2008,08,12,01,00,13.30
2008,08,12,01,01,13.30
2008,08,12,01,02,13.30
2008,08,12,01,03,13.30
2008,08,12,01,04,13.30
2008,08,12,01,05,13.30
2008,08,12,01,06,13.30
2008,08,12,01,07,13.30
2008,08,12,01,08,13.30
2008,08,12,01,09,13.30
2008,08,12,01,10,13.30
2008,08,12,01,11,13.30
2008,08,12,01,12,13.30
2008,08,12,01,13,13.30
2008,08,12,01,14,13.30
2008,08,12,01,15,13.30
2008,08,12,01,16,13.30
2008,08,12,01,17,13.20
2008,08,12,01,18,13.20
2008,08,12,01,19,13.20
2008,08,12,01,20,13.20
2008,08,12,01,21,13.20
2008,08,12,01,22,13.20
2008,08,12,01,23,13.20
2008,08,12,01,24,13.20
2008,08,12,01,25,13.10
2008,08,12,01,26,13.10
2008,08,12,01,27,13.10
2008,08,12,01,28,13.10
2008,08,12,01,29,13.10
2008,08,12,01,30,13.00
2008,08,12,01,31,13.00
2008,08,12,01,32,13.00
2008,08,12,01,33,12.90
2008,08,12,01,34,12.90
2008,08,12,01,35,12.90
2008,08,12,01,36,12.90
2008,08,12,01,37,12.90
2008,08,12,01,38,12.80
2008,08,12,01,39,12.80
2008,08,12,01,40,12.80
2008,08,12,01,41,12.80
2008,08,12,01,42,12.80
2008,08,12,01,43,12.70
2008,08,12,01,44,12.70
2008,08,12,01,45,12.70
2008,08,12,01,46,12.70
2008,08,12,01,47,12.70
2008,08,12,01,48,12.60
2008,08,12,01,49,12.60
2008,08,12,01,50,12.60
2008,08,12,01,51,12.60
2008,08,12,01,52,12.60
2008,08,12,01,53,12.50
2008,08,12,01,54,12.50
2008,08,12,01,55,12.50
2008,08,12,01,56,12.50
2008,08,12,01,57,12.40
2008,08,12,01,58,12.40
2008,08,12,01,59,12.40
2008,08,12,02,00,12.40
2008,08,12,02,01,12.40
2008,08,12,02,02,12.40
2008,08,12,02,03,12.40
2008,08,12,02,04,12.40
2008,08,12,02,05,12.40
2008,08,12,02,06,12.40
2008,08,12,02,07,12.40
2008,08,12,02,08,12.40
2008,08,12,02,09,12.40
2008,08,12,02,10,12.40
2008,08,12,02,11,12.30
2008,08,12,02,12,12.30
2008,08,12,02,13,12.30
2008,08,12,02,14,12.30
2008,08,12,02,15,12.30
2008,08,12,02,16,12.30
2008,08,12,02,17,12.30
2008,08,12,02,18,12.30
2008,08,12,02,19,12.30
2008,08,12,02,20,12.30
2008,08,12,02,21,12.20
2008,08,12,02,22,12.20
2008,08,12,02,23,12.20
2008,08,12,02,24,12.20
2008,08,12,02,25,12.20
2008,08,12,02,26,12.20
2008,08,12,02,27,12.20
2008,08,12,02,28,12.10
2008,08,12,02,29,12.10
2008,08,12,02,30,12.10
2008,08,12,02,31,12.10
2008,08,12,02,32,12.10
2008,08,12,02,33,12.10
2008,08,12,02,34,12.10
2008,08,12,02,35,12.10
2008,08,12,02,36,12.10
2008,08,12,02,37,12.00
2008,08,12,02,38,12.00
2008,08,12,02,39,12.00
2008,08,12,02,40,12.00
2008,08,12,02,41,12.00
2008,08,12,02,42,11.90
2008,08,12,02,43,11.90
2008,08,12,02,44,11.90
2008,08,12,02,45,11.90
2008,08,12,02,46,11.90
2008,08,12,02,47,11.90
2008,08,12,02,48,11.90
2008,08,12,02,49,11.90
2008,08,12,02,50,11.80
2008,08,12,02,51,11.80
2008,08,12,02,52,11.80
2008,08,12,02,53,11.80
2008,08,12,02,54,11.80
2008,08,12,02,55,11.80
2008,08,12,02,56,11.80
2008,08,12,02,57,11.80
2008,08,12,02,58,11.80
2008,08,12,02,59,11.80
2008,08,12,03,00,11.80
2008,08,12,03,01,11.80
2008,08,12,03,02,11.80
2008,08,12,03,03,11.80
2008,08,12,03,04,11.70
2008,08,12,03,05,11.70
2008,08,12,03,06,11.70
2008,08,12,03,07,11.70
2008,08,12,03,08,11.70
2008,08,12,03,09,11.70
2008,08,12,03,10,11.70
2008,08,12,03,11,11.70
2008,08,12,03,12,11.70
2008,08,12,03,13,11.70
2008,08,12,03,14,11.70
2008,08,12,03,15,11.70
2008,08,12,03,16,11.70
2008,08,12,03,17,11.70
2008,08,12,03,18,11.60
2008,08,12,03,19,11.60
2008,08,12,03,20,11.60
2008,08,12,03,21,11.60
2008,08,12,03,22,11.60
2008,08,12,03,23,11.60
2008,08,12,03,24,11.60
2008,08,12,03,25,11.60
2008,08,12,03,26,11.60
2008,08,12,03,27,11.60
2008,08,12,03,28,11.60
2008,08,12,03,29,11.60
2008,08,12,03,30,11.50
2008,08,12,03,31,11.50
2008,08,12,03,32,11.50
2008,08,12,03,33,11.50
2008,08,12,03,34,11.50
2008,08,12,03,35,11.40
2008,08,12,03,36,11.40
2008,08,12,03,37,11.40
2008,08,12,03,38,11.40
2008,08,12,03,39,11.40
2008,08,12,03,40,11.40
2008,08,12,03,41,11.40
2008,08,12,03,42,11.40
2008,08,12,03,43,11.40
2008,08,12,03,44,11.30
2008,08,12,03,45,11.30
2008,08,12,03,46,11.30
2008,08,12,03,47,11.30
2008,08,12,03,48,11.30
2008,08,12,03,49,11.30
2008,08,12,03,50,11.30
2008,08,12,03,51,11.30
2008,08,12,03,52,11.30
2008,08,12,03,53,11.30
2008,08,12,03,54,11.30
2008,08,12,03,55,11.30
2008,08,12,03,56,11.30
2008,08,12,03,57,11.20
2008,08,12,03,58,11.20
2008,08,12,03,59,11.20
2008,08,12,04,00,11.20
2008,08,12,04,01,11.20
2008,08,12,04,02,11.20
2008,08,12,04,03,11.20
2008,08,12,04,04,11.20
2008,08,12,04,05,11.20
2008,08,12,04,06,11.20
2008,08,12,04,07,11.20
2008,08,12,04,08,11.20
2008,08,12,04,09,11.20
2008,08,12,04,10,11.20
2008,08,12,04,11,11.20
2008,08,12,04,12,11.20
2008,08,12,04,13,11.20
2008,08,12,04,14,11.20
2008,08,12,04,15,11.20
2008,08,12,04,16,11.20
2008,08,12,04,17,11.20
2008,08,12,04,18,11.20
2008,08,12,04,19,11.20
2008,08,12,04,20,11.20
2008,08,12,04,21,11.20
2008,08,12,04,22,11.20
2008,08,12,04,23,11.20
2008,08,12,04,24,11.20
2008,08,12,04,25,11.20
2008,08,12,04,26,11.20
2008,08,12,04,27,11.20
2008,08,12,04,28,11.20
2008,08,12,04,29,11.20
2008,08,12,04,30,11.20
2008,08,12,04,31,11.20
2008,08,12,04,32,11.10
2008,08,12,04,33,11.10
2008,08,12,04,34,11.10
2008,08,12,04,35,11.10
2008,08,12,04,36,11.10
2008,08,12,04,37,11.20
2008,08,12,04,38,11.20
2008,08,12,04,39,11.20
2008,08,12,04,40,11.20
2008,08,12,04,41,11.20
2008,08,12,04,42,11.20
2008,08,12,04,43,11.20
2008,08,12,04,44,11.20
2008,08,12,04,45,11.20
2008,08,12,04,46,11.20
2008,08,12,04,47,11.20
2008,08,12,04,48,11.20
2008,08,12,04,49,11.20
2008,08,12,04,50,11.20
2008,08,12,04,51,11.20
2008,08,12,04,52,11.10
2008,08,12,04,53,11.10
2008,08,12,04,54,11.10
2008,08,12,04,55,11.10
2008,08,12,04,56,11.10
2008,08,12,04,57,11.10
2008,08,12,04,58,11.10
2008,08,12,04,59,11.10
2008,08,12,05,00,11.10
2008,08,12,05,01,11.10
2008,08,12,05,02,11.10
2008,08,12,05,03,11.10
2008,08,12,05,04,11.10
2008,08,12,05,05,11.10
2008,08,12,05,06,11.10
2008,08,12,05,07,11.10
2008,08,12,05,08,11.00
2008,08,12,05,09,11.00
2008,08,12,05,10,11.00
2008,08,12,05,11,11.00
2008,08,12,05,12,11.00
2008,08,12,05,13,11.00
2008,08,12,05,14,11.00
2008,08,12,05,15,11.00
2008,08,12,05,16,11.00
2008,08,12,05,17,11.00
2008,08,12,05,18,11.00
2008,08,12,05,19,11.00
2008,08,12,05,20,11.00
2008,08,12,05,21,11.00
2008,08,12,05,22,10.90
2008,08,12,05,23,11.00
2008,08,12,05,24,10.90
2008,08,12,05,25,10.90
2008,08,12,05,26,10.90
2008,08,12,05,27,10.90
2008,08,12,05,28,10.90
2008,08,12,05,29,10.90
2008,08,12,05,30,10.90
2008,08,12,05,31,10.90
2008,08,12,05,32,10.90
2008,08,12,05,33,10.80
2008,08,12,05,34,10.80
2008,08,12,05,35,10.80
2008,08,12,05,36,10.80
2008,08,12,05,37,10.80
2008,08,12,05,38,10.80
2008,08,12,05,39,10.80
2008,08,12,05,40,10.80
2008,08,12,05,41,10.80
2008,08,12,05,42,10.80
2008,08,12,05,43,10.80
2008,08,12,05,44,10.80
2008,08,12,05,45,10.80
2008,08,12,05,46,10.80
2008,08,12,05,47,10.70
2008,08,12,05,48,10.70
2008,08,12,05,49,10.70
2008,08,12,05,50,10.70
2008,08,12,05,51,10.70
2008,08,12,05,52,10.70
2008,08,12,05,53,10.70
2008,08,12,05,54,10.70
2008,08,12,05,55,10.70
2008,08,12,05,56,10.70
2008,08,12,05,57,10.70
2008,08,12,05,58,10.70
2008,08,12,05,59,10.70
2008,08,12,06,00,10.70
2008,08,12,06,01,10.70
2008,08,12,06,02,10.70
2008,08,12,06,03,10.70
2008,08,12,06,04,10.70
2008,08,12,06,05,10.60
2008,08,12,06,06,10.60
2008,08,12,06,07,10.60
2008,08,12,06,08,10.60
2008,08,12,06,09,10.60
2008,08,12,06,10,10.60
2008,08,12,06,11,10.60
2008,08,12,06,12,10.60
2008,08,12,06,13,10.60
2008,08,12,06,14,10.60
2008,08,12,06,15,10.60
2008,08,12,06,16,10.60
2008,08,12,06,17,10.60
2008,08,12,06,18,10.60
2008,08,12,06,19,10.60
2008,08,12,06,20,10.60
2008,08,12,06,21,10.60
2008,08,12,06,22,10.60
2008,08,12,06,23,10.60
2008,08,12,06,24,10.60
2008,08,12,06,25,10.60
2008,08,12,06,26,10.60
2008,08,12,06,27,10.60
2008,08,12,06,28,10.60
2008,08,12,06,29,10.60
2008,08,12,06,30,10.60
2008,08,12,06,31,10.60
2008,08,12,06,32,10.60
2008,08,12,06,33,10.60
2008,08,12,06,34,10.60
2008,08,12,06,35,10.60
2008,08,12,06,36,10.60
2008,08,12,06,37,10.60
2008,08,12,06,38,10.60
2008,08,12,06,39,10.60
2008,08,12,06,40,10.70
2008,08,12,06,41,10.70
2008,08,12,06,42,10.70
2008,08,12,06,43,10.70
2008,08,12,06,44,10.70
2008,08,12,06,45,10.70
2008,08,12,06,46,10.70
2008,08,12,06,47,10.70
2008,08,12,06,48,10.80
2008,08,12,06,49,10.80
2008,08,12,06,50,10.80
2008,08,12,06,51,10.80
2008,08,12,06,52,10.80
2008,08,12,06,53,10.80
2008,08,12,06,54,10.80
2008,08,12,06,55,10.80
2008,08,12,06,56,10.80
2008,08,12,06,57,10.90
2008,08,12,06,58,10.90
2008,08,12,06,59,10.90
2008,08,12,07,00,10.90
2008,08,12,07,01,10.90
2008,08,12,07,02,11.00
2008,08,12,07,03,11.00
2008,08,12,07,04,11.10
2008,08,12,07,05,11.10
2008,08,12,07,06,11.10
2008,08,12,07,07,11.10
2008,08,12,07,08,11.20
2008,08,12,07,09,11.20
2008,08,12,07,10,11.20
2008,08,12,07,11,11.20
2008,08,12,07,12,11.30
2008,08,12,07,13,11.30
2008,08,12,07,14,11.30
2008,08,12,07,15,11.40
2008,08,12,07,16,11.40
2008,08,12,07,17,11.40
2008,08,12,07,18,11.50
2008,08,12,07,19,11.50
2008,08,12,07,20,11.60
2008,08,12,07,21,11.60
2008,08,12,07,22,11.70
2008,08,12,07,23,11.70
2008,08,12,07,24,11.70
2008,08,12,07,25,11.70
2008,08,12,07,26,11.80
2008,08,12,07,27,11.80
2008,08,12,07,28,11.80
2008,08,12,07,29,11.90
2008,08,12,07,30,11.90
2008,08,12,07,31,12.00
2008,08,12,07,32,12.00
2008,08,12,07,33,12.10
2008,08,12,07,34,12.10
2008,08,12,07,35,12.20
2008,08,12,07,36,12.20
2008,08,12,07,37,12.30
2008,08,12,07,38,12.30
2008,08,12,07,39,12.40
2008,08,12,07,40,12.40
2008,08,12,07,41,12.50
2008,08,12,07,42,12.60
2008,08,12,07,43,12.60
2008,08,12,07,44,12.60
2008,08,12,07,45,12.70
2008,08,12,07,46,12.70
2008,08,12,07,47,12.80
2008,08,12,07,48,12.80
2008,08,12,07,49,12.90
2008,08,12,07,50,12.90
2008,08,12,07,51,13.00
2008,08,12,07,52,13.10
2008,08,12,07,53,13.10
2008,08,12,07,54,13.20
2008,08,12,07,55,13.20
2008,08,12,07,56,13.30
2008,08,12,07,57,13.30
2008,08,12,07,58,13.40
2008,08,12,07,59,13.50
2008,08,12,08,00,13.60
2008,08,12,08,01,13.60
2008,08,12,08,02,13.70
2008,08,12,08,03,13.80
2008,08,12,08,04,13.90
2008,08,12,08,05,14.00
2008,08,12,08,06,14.00
2008,08,12,08,07,14.10
2008,08,12,08,08,14.20
2008,08,12,08,09,14.30
2008,08,12,08,10,14.30
2008,08,12,08,11,14.40
2008,08,12,08,12,14.40
2008,08,12,08,13,14.50
2008,08,12,08,14,14.60
2008,08,12,08,15,14.70
2008,08,12,08,16,14.80
2008,08,12,08,17,14.90
2008,08,12,08,18,15.00
2008,08,12,08,19,15.00
2008,08,12,08,20,15.00
2008,08,12,08,21,15.00
2008,08,12,08,22,15.00
2008,08,12,08,23,15.10
2008,08,12,08,24,15.20
2008,08,12,08,25,15.30
2008,08,12,08,26,15.40
2008,08,12,08,27,15.40
2008,08,12,08,28,15.50
2008,08,12,08,29,15.60
2008,08,12,08,30,15.70
2008,08,12,08,31,15.70
2008,08,12,08,32,15.80
2008,08,12,08,33,15.90
2008,08,12,08,34,16.00
2008,08,12,08,35,16.10
2008,08,12,08,36,16.10
2008,08,12,08,37,16.20
2008,08,12,08,38,16.20
2008,08,12,08,39,16.30
2008,08,12,08,40,16.30
2008,08,12,08,41,16.40
2008,08,12,08,42,16.40
2008,08,12,08,43,16.40
2008,08,12,08,44,16.50
2008,08,12,08,45,16.50
2008,08,12,08,46,16.60
2008,08,12,08,47,16.60
2008,08,12,08,48,16.60
2008,08,12,08,49,16.60
2008,08,12,08,50,16.60
2008,08,12,08,51,16.70
2008,08,12,08,52,16.70
2008,08,12,08,53,16.70
2008,08,12,08,54,16.60
2008,08,12,08,55,16.60
2008,08,12,08,56,16.60
2008,08,12,08,57,16.60
2008,08,12,08,58,16.60
2008,08,12,08,59,16.60
2008,08,12,09,00,16.60
2008,08,12,09,01,16.60
2008,08,12,09,02,16.60
2008,08,12,09,03,16.60
2008,08,12,09,04,16.60
2008,08,12,09,05,16.60
2008,08,12,09,06,16.60
2008,08,12,09,07,16.70
2008,08,12,09,08,16.70
2008,08,12,09,09,16.70
2008,08,12,09,10,16.80
2008,08,12,09,11,16.80
2008,08,12,09,12,16.90
2008,08,12,09,13,16.90
2008,08,12,09,14,17.00
2008,08,12,09,15,17.00
2008,08,12,09,16,17.10
2008,08,12,09,17,17.10
2008,08,12,09,18,17.20
2008,08,12,09,19,17.30
2008,08,12,09,20,17.40
2008,08,12,09,21,17.40
2008,08,12,09,22,17.50
2008,08,12,09,23,17.50
2008,08,12,09,24,17.60
2008,08,12,09,25,17.70
2008,08,12,09,26,17.70
2008,08,12,09,27,17.70
2008,08,12,09,28,17.80
2008,08,12,09,29,17.80
2008,08,12,09,30,17.80
2008,08,12,09,31,17.80
2008,08,12,09,32,17.90
2008,08,12,09,33,18.00
2008,08,12,09,34,18.00
2008,08,12,09,35,18.10
2008,08,12,09,36,18.10
2008,08,12,09,37,18.10
2008,08,12,09,38,18.10
2008,08,12,09,39,18.10
2008,08,12,09,40,18.10
2008,08,12,09,41,18.20
2008,08,12,09,42,18.20
2008,08,12,09,43,18.20
2008,08,12,09,44,18.20
2008,08,12,09,45,18.20
2008,08,12,09,46,18.20
2008,08,12,09,47,18.30
2008,08,12,09,48,18.30
2008,08,12,09,49,18.40
2008,08,12,09,50,18.50
2008,08,12,09,51,18.50
2008,08,12,09,52,18.60
2008,08,12,09,53,18.70
2008,08,12,09,54,18.70
2008,08,12,09,55,18.80
2008,08,12,09,56,18.80
2008,08,12,09,57,18.80
2008,08,12,09,58,18.90
2008,08,12,09,59,18.90
2008,08,12,10,00,18.90
2008,08,12,10,01,18.90
2008,08,12,10,02,18.90
2008,08,12,10,03,18.90
2008,08,12,10,04,18.90
2008,08,12,10,05,18.90
2008,08,12,10,06,19.00
2008,08,12,10,07,19.00
2008,08,12,10,08,19.00
2008,08,12,10,09,19.10
2008,08,12,10,10,19.10
2008,08,12,10,11,19.10
2008,08,12,10,12,19.20
2008,08,12,10,13,19.30
2008,08,12,10,14,19.30
2008,08,12,10,15,19.30
2008,08,12,10,16,19.40
2008,08,12,10,17,19.40
2008,08,12,10,18,19.50
2008,08,12,10,19,19.50
2008,08,12,10,20,19.60
2008,08,12,10,21,19.70
2008,08,12,10,22,19.70
2008,08,12,10,23,19.70
2008,08,12,10,24,19.70
2008,08,12,10,25,19.70
2008,08,12,10,26,19.80
2008,08,12,10,27,19.80
2008,08,12,10,28,19.80
2008,08,12,10,29,19.90
2008,08,12,10,30,19.90
2008,08,12,10,31,19.90
2008,08,12,10,32,19.90
2008,08,12,10,33,19.90
2008,08,12,10,34,19.90
2008,08,12,10,35,20.00
2008,08,12,10,36,20.00
2008,08,12,10,37,20.00
2008,08,12,10,38,20.10
2008,08,12,10,39,20.10
2008,08,12,10,40,20.10
2008,08,12,10,41,20.20
2008,08,12,10,42,20.20
2008,08,12,10,43,20.20
2008,08,12,10,44,20.20
2008,08,12,10,45,20.20
2008,08,12,10,46,20.20
2008,08,12,10,47,20.20
2008,08,12,10,48,20.10
2008,08,12,10,49,20.10
2008,08,12,10,50,20.10
2008,08,12,10,51,20.10
2008,08,12,10,52,20.10
2008,08,12,10,53,20.10
2008,08,12,10,54,20.10
2008,08,12,10,55,20.10
2008,08,12,10,56,20.10
2008,08,12,10,57,20.20
2008,08,12,10,58,20.20
2008,08,12,10,59,20.20
2008,08,12,11,00,20.30
2008,08,12,11,01,20.30
2008,08,12,11,02,20.30
2008,08,12,11,03,20.30
2008,08,12,11,04,20.30
2008,08,12,11,05,20.30
2008,08,12,11,06,20.30
2008,08,12,11,07,20.30
2008,08,12,11,08,20.30
2008,08,12,11,09,20.40
2008,08,12,11,10,20.40
2008,08,12,11,11,20.40
2008,08,12,11,12,20.50
2008,08,12,11,13,20.50
2008,08,12,11,14,20.60
2008,08,12,11,15,20.70
2008,08,12,11,16,20.70
2008,08,12,11,17,20.70
2008,08,12,11,18,20.70
2008,08,12,11,19,20.80
2008,08,12,11,20,20.80
2008,08,12,11,21,20.90
2008,08,12,11,22,20.90
2008,08,12,11,23,21.00
2008,08,12,11,24,21.10
2008,08,12,11,25,21.20
2008,08,12,11,26,21.30
2008,08,12,11,27,21.30
2008,08,12,11,28,21.30
2008,08,12,11,29,21.30
2008,08,12,11,30,21.30
2008,08,12,11,31,21.30
2008,08,12,11,32,21.30
2008,08,12,11,33,21.30
2008,08,12,11,34,21.30
2008,08,12,11,35,21.30
2008,08,12,11,36,21.30
2008,08,12,11,37,21.30
2008,08,12,11,38,21.30
2008,08,12,11,39,21.30
2008,08,12,11,40,21.30
2008,08,12,11,41,21.30
2008,08,12,11,42,21.30
2008,08,12,11,43,21.30
2008,08,12,11,44,21.30
2008,08,12,11,45,21.40
2008,08,12,11,46,21.40
2008,08,12,11,47,21.40
2008,08,12,11,48,21.40
2008,08,12,11,49,21.40
2008,08,12,11,50,21.40
2008,08,12,11,51,21.40
2008,08,12,11,52,21.50
2008,08,12,11,53,21.50
2008,08,12,11,54,21.50
2008,08,12,11,55,21.60
2008,08,12,11,56,21.60
2008,08,12,11,57,21.70
2008,08,12,11,58,21.70
2008,08,12,11,59,21.70
2008,08,12,12,00,21.70
2008,08,12,12,01,21.60
2008,08,12,12,02,21.60
2008,08,12,12,03,21.60
2008,08,12,12,04,21.60
2008,08,12,12,05,21.60
2008,08,12,12,06,21.50
2008,08,12,12,07,21.40
2008,08,12,12,08,21.40
2008,08,12,12,09,21.40
2008,08,12,12,10,21.40
2008,08,12,12,11,21.30
2008,08,12,12,12,21.30
2008,08,12,12,13,21.30
2008,08,12,12,14,21.30
2008,08,12,12,15,21.30
2008,08,12,12,16,21.30
2008,08,12,12,17,21.30
2008,08,12,12,18,21.30
2008,08,12,12,19,21.30
2008,08,12,12,20,21.30
2008,08,12,12,21,21.20
2008,08,12,12,22,21.20
2008,08,12,12,23,21.20
2008,08,12,12,24,21.20
2008,08,12,12,25,21.20
2008,08,12,12,26,21.10
2008,08,12,12,27,21.00
2008,08,12,12,28,21.00
2008,08,12,12,29,20.90
2008,08,12,12,30,20.90
2008,08,12,12,31,20.90
2008,08,12,12,32,20.90
2008,08,12,12,33,20.90
2008,08,12,12,34,21.00
2008,08,12,12,35,21.00
2008,08,12,12,36,21.00
2008,08,12,12,37,21.00
2008,08,12,12,38,21.00
2008,08,12,12,39,21.00
2008,08,12,12,40,21.10
2008,08,12,12,41,21.10
2008,08,12,12,42,21.10
2008,08,12,12,43,21.10
2008,08,12,12,44,21.10
2008,08,12,12,45,21.00
2008,08,12,12,46,21.00
2008,08,12,12,47,21.00
2008,08,12,12,48,21.00
2008,08,12,12,49,20.90
2008,08,12,12,50,20.90
2008,08,12,12,51,21.00
2008,08,12,12,52,21.00
2008,08,12,12,53,21.00
2008,08,12,12,54,21.00
2008,08,12,12,55,21.10
2008,08,12,12,56,21.10
2008,08,12,12,57,21.10
2008,08,12,12,58,21.20
2008,08,12,12,59,21.20
2008,08,12,13,00,21.20
2008,08,12,13,01,21.20
2008,08,12,13,02,21.30
2008,08,12,13,03,21.30
2008,08,12,13,04,21.30
2008,08,12,13,05,21.40
2008,08,12,13,06,21.40
2008,08,12,13,07,21.40
2008,08,12,13,08,21.50
2008,08,12,13,09,21.50
2008,08,12,13,10,21.50
2008,08,12,13,11,21.60
2008,08,12,13,12,21.60
2008,08,12,13,13,21.60
2008,08,12,13,14,21.70
2008,08,12,13,15,21.70
2008,08,12,13,16,21.70
2008,08,12,13,17,21.70
2008,08,12,13,18,21.70
2008,08,12,13,19,21.70
2008,08,12,13,20,21.70
2008,08,12,13,21,21.80
2008,08,12,13,22,21.80
2008,08,12,13,23,21.80
2008,08,12,13,24,21.80
2008,08,12,13,25,21.80
2008,08,12,13,26,21.70
2008,08,12,13,27,21.70
2008,08,12,13,28,21.70
2008,08,12,13,29,21.70
2008,08,12,13,30,21.80
2008,08,12,13,31,21.80
2008,08,12,13,32,21.80
2008,08,12,13,33,21.80
2008,08,12,13,34,21.80
2008,08,12,13,35,21.80
2008,08,12,13,36,21.80
2008,08,12,13,37,21.90
2008,08,12,13,38,21.90
2008,08,12,13,39,21.90
2008,08,12,13,40,22.00
2008,08,12,13,41,22.00
2008,08,12,13,42,22.00
2008,08,12,13,43,22.00
2008,08,12,13,44,22.00
2008,08,12,13,45,22.00
2008,08,12,13,46,21.90
2008,08,12,13,47,21.80
2008,08,12,13,48,21.80
2008,08,12,13,49,21.80
2008,08,12,13,50,21.80
2008,08,12,13,51,21.80
2008,08,12,13,52,21.90
2008,08,12,13,53,21.90
2008,08,12,13,54,22.00
2008,08,12,13,55,22.00
2008,08,12,13,56,22.10
2008,08,12,13,57,22.10
2008,08,12,13,58,22.10
2008,08,12,13,59,22.10
2008,08,12,14,00,22.10
2008,08,12,14,01,22.10
2008,08,12,14,02,22.10
2008,08,12,14,03,22.10
2008,08,12,14,04,22.10
2008,08,12,14,05,22.10
2008,08,12,14,06,22.00
2008,08,12,14,07,22.00
2008,08,12,14,08,21.90
2008,08,12,14,09,21.90
2008,08,12,14,10,21.90
2008,08,12,14,11,21.80
2008,08,12,14,12,21.80
2008,08,12,14,13,21.80
2008,08,12,14,14,21.80
2008,08,12,14,15,21.80
2008,08,12,14,16,21.80
2008,08,12,14,17,21.80
2008,08,12,14,18,21.90
2008,08,12,14,19,21.90
2008,08,12,14,20,21.80
2008,08,12,14,21,21.80
2008,08,12,14,22,21.80
2008,08,12,14,23,21.70
2008,08,12,14,24,21.70
2008,08,12,14,25,21.70
2008,08,12,14,26,21.70
2008,08,12,14,27,21.70
2008,08,12,14,28,21.70
2008,08,12,14,29,21.70
2008,08,12,14,30,21.70
2008,08,12,14,31,21.60
2008,08,12,14,32,21.60
2008,08,12,14,33,21.60
2008,08,12,14,34,21.60
2008,08,12,14,35,21.60
2008,08,12,14,36,21.60
2008,08,12,14,37,21.60
2008,08,12,14,38,21.50
2008,08,12,14,39,21.50
2008,08,12,14,40,21.50
2008,08,12,14,41,21.40
2008,08,12,14,42,21.40
2008,08,12,14,43,21.40
2008,08,12,14,44,21.30
2008,08,12,14,45,21.30
2008,08,12,14,46,21.30
2008,08,12,14,47,21.30
2008,08,12,14,48,21.30
2008,08,12,14,49,21.30
2008,08,12,14,50,21.20
2008,08,12,14,51,21.20
2008,08,12,14,52,21.20
2008,08,12,14,53,21.20
2008,08,12,14,54,21.20
2008,08,12,14,55,21.20
2008,08,12,14,56,21.20
2008,08,12,14,57,21.20
2008,08,12,14,58,21.10
2008,08,12,14,59,21.10
2008,08,12,15,00,21.10
2008,08,12,15,01,21.10
2008,08,12,15,02,21.10
2008,08,12,15,03,21.10
2008,08,12,15,04,21.00
2008,08,12,15,05,21.00
2008,08,12,15,06,21.00
2008,08,12,15,07,21.00
2008,08,12,15,08,21.00
2008,08,12,15,09,20.90
2008,08,12,15,10,20.90
2008,08,12,15,11,20.90
2008,08,12,15,12,20.90
2008,08,12,15,13,20.90
2008,08,12,15,14,20.90
2008,08,12,15,15,20.90
2008,08,12,15,16,21.00
2008,08,12,15,17,21.00
2008,08,12,15,18,21.00
2008,08,12,15,19,21.00
2008,08,12,15,20,21.00
2008,08,12,15,21,21.00
2008,08,12,15,22,21.00
2008,08,12,15,23,21.00
2008,08,12,15,24,21.00
2008,08,12,15,25,20.90
2008,08,12,15,26,20.90
2008,08,12,15,27,20.80
2008,08,12,15,28,20.80
2008,08,12,15,29,20.70
2008,08,12,15,30,20.70
2008,08,12,15,31,20.70
2008,08,12,15,32,20.60
2008,08,12,15,33,20.60
2008,08,12,15,34,20.60
2008,08,12,15,35,20.60
2008,08,12,15,36,20.70
2008,08,12,15,37,20.70
2008,08,12,15,38,20.70
2008,08,12,15,39,20.70
2008,08,12,15,40,20.70
2008,08,12,15,41,20.70
2008,08,12,15,42,20.80
2008,08,12,15,43,20.80
2008,08,12,15,44,20.80
2008,08,12,15,45,20.80
2008,08,12,15,46,20.80
2008,08,12,15,47,20.80
2008,08,12,15,48,20.80
2008,08,12,15,49,20.90
2008,08,12,15,50,20.90
2008,08,12,15,51,20.90
2008,08,12,15,52,20.90
2008,08,12,15,53,20.90
2008,08,12,15,54,20.90
2008,08,12,15,55,20.90
2008,08,12,15,56,21.00
2008,08,12,15,57,21.00
2008,08,12,15,58,21.10
2008,08,12,15,59,21.10
2008,08,12,16,00,21.10
2008,08,12,16,01,21.10
2008,08,12,16,02,21.10
2008,08,12,16,03,21.10
2008,08,12,16,04,21.10
2008,08,12,16,05,21.10
2008,08,12,16,06,21.20
2008,08,12,16,07,21.20
2008,08,12,16,08,21.20
2008,08,12,16,09,21.20
2008,08,12,16,10,21.30
2008,08,12,16,11,21.30
2008,08,12,16,12,21.30
2008,08,12,16,13,21.30
2008,08,12,16,14,21.30
2008,08,12,16,15,21.30
2008,08,12,16,16,21.30
2008,08,12,16,17,21.30
2008,08,12,16,18,21.30
2008,08,12,16,19,21.30
2008,08,12,16,20,21.30
2008,08,12,16,21,21.30
2008,08,12,16,22,21.30
2008,08,12,16,23,21.30
2008,08,12,16,24,21.30
2008,08,12,16,25,21.20
2008,08,12,16,26,21.20
2008,08,12,16,27,21.20
2008,08,12,16,28,21.20
2008,08,12,16,29,21.20
2008,08,12,16,30,21.20
2008,08,12,16,31,21.10
2008,08,12,16,32,21.10
2008,08,12,16,33,21.10
2008,08,12,16,34,21.00
2008,08,12,16,35,21.00
2008,08,12,16,36,21.00
2008,08,12,16,37,21.00
2008,08,12,16,38,21.00
2008,08,12,16,39,21.00
2008,08,12,16,40,21.00
2008,08,12,16,41,21.00
2008,08,12,16,42,21.00
2008,08,12,16,43,21.00
2008,08,12,16,44,21.00
2008,08,12,16,45,21.00
2008,08,12,16,46,21.00
2008,08,12,16,47,21.00
2008,08,12,16,48,21.00
2008,08,12,16,49,21.00
2008,08,12,16,50,21.00
2008,08,12,16,51,21.00
2008,08,12,16,52,21.10
2008,08,12,16,53,21.10
2008,08,12,16,54,21.10
2008,08,12,16,55,21.10
2008,08,12,16,56,21.10
2008,08,12,16,57,21.10
2008,08,12,16,58,21.10
2008,08,12,16,59,21.10
2008,08,12,17,00,21.10
2008,08,12,17,01,21.10
2008,08,12,17,02,21.10
2008,08,12,17,03,21.10
2008,08,12,17,04,21.10
2008,08,12,17,05,21.10
2008,08,12,17,06,21.10
2008,08,12,17,07,21.10
2008,08,12,17,08,21.10
2008,08,12,17,09,21.10
2008,08,12,17,10,21.10
2008,08,12,17,11,21.00
2008,08,12,17,12,21.00
2008,08,12,17,13,21.00
2008,08,12,17,14,20.90
2008,08,12,17,15,20.90
2008,08,12,17,16,20.80
2008,08,12,17,17,20.80
2008,08,12,17,18,20.80
2008,08,12,17,19,20.80